Tampa, FL

3:01 AM EST on December 09, 2019 (GMT -0500)
Tampa International

Weather History for KTPA - November, 2019

Change the Weather History Date:

Thursday, November 14, 2019

  Actual Average Record
Temperature  
Mean Temperature 69 °F 69 °F  
Max Temperature 76 °F 78 °F 88 °F (1993)
Min Temperature 62 °F 61 °F 37 °F (1968)
Degree Days  
Heating Degree Days 0 1  
Month to date heating degree days 3 12  
Since 1 July heating degree days 3 16  
Cooling Degree Days 4 6  
Month to date cooling degree days 128 93  
Year to date cooling degree days 4134 3459  
Growing Degree Days 19 (Base 50)    
Moisture  
Dew Point 62 °F    
Average Humidity 78    
Maximum Humidity 87    
Minimum Humidity 68    
Precipitation  
Precipitation 0.08 in 0.06 in 3.49 in (1954)
Month to date precipitation 0.21 0.73  
Year to date precipitation 55.92 43.01  
Sea Level Pressure  
Sea Level Pressure 30.06 in    
Wind  
Wind Speed 6 mph (NE)    
Max Wind Speed 12 mph    
Max Gust Speed 21 mph    
Visibility 10 miles    
Events Rain    
T = Trace of Precipitation, MM = Missing Value Source: NWS Daily Summary

Daily Weather History Graph

Daily Weather History Graph

Search for Another Location

Airport or City:

Astronomy

Nov. 14, 2019 Rise Set
Actual Time 6:50 AM EST 5:38 PM EST
Civil Twilight 6:25 AM EST 6:02 PM EST
Nautical Twilight 5:57 AM EST 6:31 PM EST
Astronomical Twilight 5:29 AM EST 6:58 PM EST
Moon 7:29 PM EST (11/14) 8:39 AM EST (11/14)
Length of Visible Light 11h 36m
Length of Day
10h 47m
Waning Gibbous, 95% of the Moon is Illuminated
Nov 14
Waning Gibbous
Nov 19
Last Quarter
Nov 26
New
Dec 4
First Quarter
Dec 12
Full

Hourly Weather History & Observations

Time (EST) Temp. Dew Point Humidity Pressure Visibility Wind Dir Wind Speed Gust Speed Precip Events Conditions
12:53 AM 62.1 °F 54.0 °F 75% 30.09 in 10.0 mi NE 6.9 mph - N/A   Scattered Clouds
1:53 AM 62.1 °F 55.0 °F 78% 30.08 in 10.0 mi NE 8.1 mph - N/A   Mostly Cloudy
2:53 AM 62.1 °F 55.0 °F 78% 30.07 in 10.0 mi NNE 8.1 mph - N/A   Mostly Cloudy
3:53 AM 63.0 °F 55.0 °F 75% 30.07 in 10.0 mi NE 5.8 mph - N/A   Mostly Cloudy
4:53 AM 63.0 °F 55.9 °F 78% 30.08 in 10.0 mi NE 6.9 mph - N/A   Mostly Cloudy
5:53 AM 64.0 °F 55.9 °F 75% 30.09 in 10.0 mi NNE 6.9 mph - N/A   Scattered Clouds
6:53 AM 64.9 °F 57.0 °F 75% 30.10 in 10.0 mi NE 6.9 mph - N/A   Mostly Cloudy
7:53 AM 64.9 °F 57.9 °F 78% 30.12 in 10.0 mi NE 6.9 mph - 0.00 in   Mostly Cloudy
8:53 AM 66.0 °F 59.0 °F 78% 30.12 in 10.0 mi NE 8.1 mph - 0.01 in   Mostly Cloudy
9:53 AM 69.1 °F 60.1 °F 73% 30.12 in 10.0 mi NE 8.1 mph - N/A   Overcast
10:53 AM 70.0 °F 60.1 °F 71% 30.12 in 10.0 mi NE 5.8 mph - N/A   Overcast
11:53 AM 71.1 °F 62.1 °F 73% 30.09 in 10.0 mi ENE 8.1 mph - N/A   Overcast
12:53 PM 73.9 °F 63.0 °F 68% 30.06 in 10.0 mi ENE 6.9 mph - N/A   Overcast
1:53 PM 75.9 °F 64.0 °F 67% 30.04 in 10.0 mi Variable 4.6 mph - N/A   Overcast
2:53 PM 75.9 °F 66.0 °F 71% 30.03 in 10.0 mi Variable 5.8 mph - N/A   Overcast
3:53 PM 75.9 °F 66.0 °F 71% 30.02 in 10.0 mi ENE 4.6 mph - N/A   Overcast
4:53 PM 75.0 °F 68.0 °F 79% 30.01 in 10.0 mi ENE 6.9 mph - 0.00 in   Overcast
5:53 PM 73.9 °F 68.0 °F 82% 30.04 in 10.0 mi ENE 3.5 mph - 0.00 in Rain Light Rain
6:53 PM 73.0 °F 69.1 °F 87% 30.04 in 10.0 mi ENE 3.5 mph - 0.03 in Rain Light Rain
7:53 PM 73.0 °F 69.1 °F 87% 30.03 in 10.0 mi East 6.9 mph - 0.00 in Rain Light Rain
8:53 PM 73.0 °F 69.1 °F 87% 30.03 in 10.0 mi Variable 5.8 mph - 0.03 in Rain Light Rain
9:53 PM 73.0 °F 69.1 °F 87% 30.03 in 10.0 mi ESE 6.9 mph - 0.01 in   Overcast
10:53 PM 73.0 °F 69.1 °F 87% 30.02 in 10.0 mi ESE 4.6 mph - N/A   Overcast
11:53 PM 73.0 °F 69.1 °F 87% 30.01 in 10.0 mi Calm Calm - N/A   Mostly Cloudy